Location: Marcé
(47.5801°N, 0.3280°W)
Time: 07:50:36
(UTC+01:00)

Vanguard 1 Rocket - Pass Details

Date: 05 December 2021
Orbit: 651 x 4224 km, 34.3° (Epoch: 23 January)

Event Time Altitude Azimuth Distance (km) Brightness Sun altitude
Exits shadow 06:00:45 25° 243° (WSW) 3,935 10.1 -24.8°
Maximum altitude 06:10:15 52° 183° (S) 3,677 10.4 -23.2°
Drops below altitude 10° 06:32:54 10° 117° (ESE) 7,356 13.1 -19.4°
Sets 06:39:12 0° 113° (ESE) 8,467 13.9 -18.4°
